Weather History for Flag Island, MN

Change the Weather History Date:

Friday, March 8, 2013

  Actual Average Record
Temperature  
Mean Temperature 26 °F -  
Max Temperature 30 °F 19 °F 39 °F (2006)
Min Temperature 21 °F 1 °F -22 °F (2003)
Degree Days  
Heating Degree Days 40    
Moisture  
Dew Point 20 °F    
Average Humidity 83    
Maximum Humidity 100    
Minimum Humidity 69    
Precipitation  
Precipitation 0.00 in - - ()
Sea Level Pressure  
Sea Level Pressure 30.14 in    
Wind  
Wind Speed 12 mph (South)    
Max Wind Speed 18 mph    
Max Gust Speed -    
Visibility 8 miles    
Events      
Averages and records for this station are not official NWS values.
T = Trace of Precipitation, MM = Missing Value Source: NWS Daily Summary

Daily Weather History Graph

Daily Weather History Graph

Search for Another Location

Airport:

Trip Planner

Search our weather history database for the weather conditions in past years. The results will help you decide how hot, cold, wet, or windy it might be!

Date:

Astronomy

Mar. 08, 2013 Rise Set
Actual Time 6:47 AM CST 6:14 PM CST
Civil Twilight 6:15 AM CST 6:46 PM CST
Nautical Twilight 5:38 AM CST 7:23 PM CST
Astronomical Twilight 5:01 AM CST 8:00 PM CST
Moon 4:47 AM CST (3/8) 2:57 PM CST (3/8)
Length of Visible Light 12h 30m
Length of Day
11h 27m
Waning Crescent, 11% of the Moon is Illuminated
Mar 8
Waning Crescent
Mar 11
New
Mar 19
First Quarter
Mar 27
Full
Apr 2
Last Quarter

Hourly Weather History & Observations

Time (CST) Temp. Windchill Dew Point Humidity Pressure Visibility Wind Dir Wind Speed Gust Speed Precip Events Conditions
12:13 AM 21.2 °F 7.3 °F 15.8 °F 80% 30.18 in 10.0 mi SSE 16.1 mph - N/A   Scattered Clouds
12:34 AM 21.2 °F 7.8 °F 15.8 °F 80% 30.18 in 10.0 mi SSE 15.0 mph - N/A   Mostly Cloudy
12:54 AM 21.2 °F 7.3 °F 15.8 °F 80% 30.18 in 10.0 mi SSE 16.1 mph - N/A   Mostly Cloudy
1:13 AM 21.2 °F 6.4 °F 15.8 °F 80% 30.17 in 10.0 mi SSE 18.4 mph - N/A   Scattered Clouds
1:54 AM 21.2 °F 6.4 °F 17.6 °F 86% 30.17 in 10.0 mi SSE 18.4 mph - N/A   Overcast
2:13 AM 21.2 °F 7.3 °F 17.6 °F 86% 30.17 in 10.0 mi SSE 16.1 mph - N/A   Overcast
2:33 AM 23.0 °F 9.2 °F 17.6 °F 80% 30.17 in 10.0 mi South 17.3 mph - N/A   Overcast
2:53 AM 23.0 °F 9.2 °F 17.6 °F 80% 30.16 in 10.0 mi SSE 17.3 mph - N/A   Overcast
3:14 AM 21.2 °F 6.8 °F 17.6 °F 86% 30.16 in 10.0 mi South 17.3 mph - N/A   Overcast
3:33 AM 21.2 °F 7.3 °F 17.6 °F 86% 30.16 in 10.0 mi South 16.1 mph - N/A   Overcast
3:53 AM 21.2 °F 10.1 °F 17.6 °F 86% 30.16 in 10.0 mi South 10.4 mph - N/A   Overcast
4:13 AM 21.2 °F 8.9 °F 17.6 °F 86% 30.16 in 10.0 mi South 12.7 mph - N/A   Overcast
4:33 AM 21.2 °F 7.3 °F 17.6 °F 86% 30.15 in 10.0 mi SSE 16.1 mph - N/A   Overcast
4:53 AM 21.2 °F 7.8 °F 17.6 °F 86% 30.15 in 10.0 mi South 15.0 mph - N/A   Overcast
5:13 AM 21.2 °F 8.3 °F 17.6 °F 86% 30.15 in 10.0 mi South 13.8 mph - N/A   Overcast
5:33 AM 21.2 °F 8.3 °F 17.6 °F 86% 30.15 in 10.0 mi South 13.8 mph - N/A   Overcast
5:54 AM 21.2 °F 10.1 °F 17.6 °F 86% 30.16 in 10.0 mi South 10.4 mph - N/A   Overcast
6:33 AM 21.2 °F 10.1 °F 17.6 °F 86% 30.15 in 10.0 mi South 10.4 mph - N/A   Overcast
6:54 AM 21.2 °F 10.1 °F 17.6 °F 86% 30.15 in 7.0 mi South 10.4 mph - N/A   Overcast
7:13 AM 21.2 °F 11.7 °F 19.4 °F 93% 30.15 in 4.0 mi South 8.1 mph - N/A   Overcast
7:33 AM 21.2 °F 11.7 °F 19.4 °F 93% 30.15 in 3.0 mi South 8.1 mph - N/A   Overcast
7:54 AM 21.2 °F 9.5 °F 19.4 °F 93% 30.15 in 2.5 mi South 11.5 mph - N/A   Overcast
8:13 AM 21.2 °F 10.9 °F 21.2 °F 100% 30.15 in 2.5 mi South 9.2 mph - N/A   Overcast
8:33 AM 23.0 °F 13.9 °F 21.2 °F 93% 30.15 in 2.0 mi South 8.1 mph - N/A   Overcast
8:53 AM 23.0 °F 13.1 °F 21.2 °F 93% 30.15 in 2.0 mi South 9.2 mph - N/A   Overcast
9:13 AM 23.0 °F 11.7 °F 21.2 °F 93% 30.15 in 2.0 mi South 11.5 mph - N/A   Overcast
9:34 AM 23.0 °F 11.7 °F 21.2 °F 93% 30.15 in 2.0 mi South 11.5 mph - N/A   Overcast
9:53 AM 23.0 °F 11.7 °F 21.2 °F 93% 30.15 in 2.5 mi South 11.5 mph - N/A   Overcast
10:14 AM 24.8 °F 14.6 °F 21.2 °F 86% 30.15 in 3.0 mi SSW 10.4 mph - N/A   Overcast
10:33 AM 24.8 °F 14.6 °F 21.2 °F 86% 30.15 in 3.0 mi SSW 10.4 mph - N/A   Overcast
10:53 AM 24.8 °F 14.0 °F 21.2 °F 86% 30.15 in 3.0 mi South 11.5 mph - N/A   Overcast
11:13 AM 24.8 °F 14.6 °F 23.0 °F 93% 30.15 in 3.0 mi South 10.4 mph - N/A   Overcast
11:34 AM 24.8 °F 14.0 °F 21.2 °F 86% 30.15 in 3.0 mi South 11.5 mph - N/A   Overcast
11:53 AM 24.8 °F 15.3 °F 21.2 °F 86% 30.16 in 3.0 mi South 9.2 mph - N/A   Overcast
12:14 PM 26.6 °F 17.5 °F 21.2 °F 80% 30.15 in 5.0 mi SSW 9.2 mph - N/A   Haze
12:33 PM 26.6 °F 18.2 °F 23.0 °F 86% 30.15 in 5.0 mi South 8.1 mph - N/A   Overcast
12:54 PM 26.6 °F 16.8 °F 23.0 °F 86% 30.15 in 5.0 mi South 10.4 mph - N/A   Overcast
1:13 PM 26.6 °F 18.2 °F 24.8 °F 93% 30.15 in 5.0 mi SSW 8.1 mph - N/A   Overcast
1:34 PM 28.4 °F 20.4 °F 21.2 °F 74% 30.14 in 7.0 mi SSW 8.1 mph - N/A   Overcast
1:54 PM 28.4 °F 19.7 °F 23.0 °F 80% 30.14 in 7.0 mi South 9.2 mph - N/A   Overcast
2:13 PM 28.4 °F 19.1 °F 23.0 °F 80% 30.13 in 10.0 mi SSW 10.4 mph - N/A   Overcast
2:34 PM 28.4 °F 20.4 °F 23.0 °F 80% 30.13 in 10.0 mi South 8.1 mph - N/A   Overcast
2:54 PM 28.4 °F 19.7 °F 23.0 °F 80% 30.13 in 10.0 mi South 9.2 mph - N/A   Overcast
3:13 PM 28.4 °F 18.5 °F 21.2 °F 74% 30.13 in 10.0 mi SW 11.5 mph - N/A   Overcast
3:34 PM 30.2 °F 19.8 °F 21.2 °F 69% 30.13 in 10.0 mi SSW 13.8 mph - N/A   Overcast
3:53 PM 30.2 °F 20.2 °F 21.2 °F 69% 30.14 in 10.0 mi SSW 12.7 mph - N/A   Overcast
4:13 PM 30.2 °F 19.3 °F 21.2 °F 69% 30.13 in 10.0 mi SSW 15.0 mph - N/A   Overcast
4:34 PM 30.2 °F 20.8 °F 21.2 °F 69% 30.14 in 10.0 mi SW 11.5 mph - N/A   Overcast
4:54 PM 28.4 °F 18.5 °F 21.2 °F 74% 30.14 in 10.0 mi SSW 11.5 mph - N/A   Overcast
5:13 PM 28.4 °F 17.5 °F 21.2 °F 74% 30.14 in 10.0 mi SSW 13.8 mph - N/A   Overcast
5:34 PM 28.4 °F 17.5 °F 21.2 °F 74% 30.14 in 10.0 mi SW 13.8 mph - N/A   Overcast
5:54 PM 28.4 °F 18.5 °F 21.2 °F 74% 30.14 in 10.0 mi SSW 11.5 mph - N/A   Overcast
6:13 PM 28.4 °F 19.1 °F 21.2 °F 74% 30.14 in 10.0 mi SW 10.4 mph - N/A   Overcast
6:34 PM 28.4 °F 19.7 °F 21.2 °F 74% 30.15 in 10.0 mi SW 9.2 mph - N/A   Overcast
6:54 PM 26.6 °F 18.2 °F 19.4 °F 74% 30.15 in 10.0 mi SW 8.1 mph - N/A   Mostly Cloudy
7:13 PM 26.6 °F 20.0 °F 19.4 °F 74% 30.14 in 10.0 mi WSW 5.8 mph - N/A   Mostly Cloudy
7:34 PM 26.6 °F - 19.4 °F 74% 30.14 in 10.0 mi Calm Calm - N/A   Mostly Cloudy
7:53 PM 26.6 °F - 19.4 °F 74% 30.13 in 10.0 mi Calm Calm - N/A   Mostly Cloudy
8:14 PM 24.8 °F 19.1 °F 19.4 °F 80% 30.14 in 10.0 mi South 4.6 mph - N/A   Mostly Cloudy
8:33 PM 24.8 °F 19.1 °F 19.4 °F 80% 30.13 in 10.0 mi South 4.6 mph - N/A   Mostly Cloudy
8:54 PM 24.8 °F 19.1 °F 19.4 °F 80% 30.12 in 10.0 mi South 4.6 mph - N/A   Clear
9:13 PM 21.2 °F 14.9 °F 17.6 °F 86% 30.12 in 10.0 mi South 4.6 mph - N/A   Clear
9:33 PM 21.2 °F - 19.4 °F 93% 30.11 in 10.0 mi Calm Calm - N/A   Clear
9:54 PM 23.0 °F 18.4 °F 19.4 °F 86% 30.09 in 10.0 mi SE 3.5 mph - N/A   Clear
10:13 PM 21.2 °F 16.4 °F 19.4 °F 93% 30.09 in 10.0 mi SE 3.5 mph - N/A   Scattered Clouds
10:54 PM 21.2 °F - 19.4 °F 93% 30.10 in 10.0 mi Calm Calm - N/A   Mostly Cloudy
11:13 PM 21.2 °F - 19.4 °F 93% 30.10 in 10.0 mi Calm Calm - N/A   Mostly Cloudy
11:33 PM 23.0 °F 18.4 °F 19.4 °F 86% 30.10 in 10.0 mi South 3.5 mph - N/A   Overcast
11:54 PM 21.2 °F - 19.4 °F 93% 30.09 in 7.0 mi Calm Calm - N/A   Overcast